Location: Waco, TX
(31.5480°N, 97.1670°W)
Time: 00:33:59
(UTC-06:00)

ISS - Pass Details

Date: 09 December 2017
Orbit: 403 x 407 km, 51.6° (Epoch: 12 December)

Event Time Altitude Azimuth Distance (km) Brightness Sun altitude
Rises 12:33:43 0° 200° (SSW) 2,309 0.9 35.5°
Reaches altitude 10° 12:36:00 10° 187° (S) 1,454 0.4 35.4°
Maximum altitude 12:38:45 25° 129° (SE) 855 -1.5 35.4°
Drops below altitude 10° 12:41:31 10° 71° (ENE) 1,462 -1.1 35.3°
Sets 12:43:48 0° 58° (ENE) 2,325 -0.3 35.3°
